Back to catalog

OPS 6553

AliveNavigationPO
NORAD 13172·PAYLOAD·🇺🇸 United States

Launched May 11, 1982 from Vandenberg Space Force Base

Loading…

Next Passes (next 24 hours)

TLE

FreshSource: Space-Track

Epoch: Sep 13, 2026, 23:50 UTC

1 13172U 82041C   26256.99348025  .00002975  00000-0  20203-3 0  9993
2 13172  96.0121 351.5697 0008475 347.6058  12.4964 15.06868822129035

Track OPS 6553 in real time with AllMySat

Download on the App Store